Location: Izdebno
(52.6670°N, 16.2170°E)
Time: 14:15:53
(UTC+01:00)

Vanguard 2 - Pass Details

Date: 06 February 2023
Orbit: 553 x 2927 km, 32.9° (Epoch: 24 March)

Event Time Altitude Azimuth Distance (km) Brightness Sun altitude
Rises 02:44:03 0° 268° (W) 6,519 - -42.1°
Reaches altitude 10° 02:49:50 10° 255° (WSW) 5,683 - -41.4°
Maximum altitude 03:01:04 21° 215° (SW) 4,827 - -40.0°
Exits shadow 03:10:50 12° 178° (S) 5,277 11.5 -38.7°
Drops below altitude 10° 03:11:49 10° 175° (S) 5,382 11.6 -38.6°
Sets 03:17:08 0° 161° (SSE) 6,089 12.1 -37.9°
